Location: Horowhenua
(40.7500°S, 175.3333°E)
Time: 15:31:30
(UTC+00:00)

SL-24 DEB - Pass Details

Date: 30 September 2023
Orbit: 654 x 688 km, 92.0° (Epoch: 01 December)

Event Time Altitude Azimuth Distance (km) Brightness Sun altitude
Rises 15:10:58 0° 170° (S) 3,028 8.2 -29.8°
Reaches altitude 10° 15:13:18 10° 164° (SSE) 2,111 7.4 -29.4°
Maximum altitude 15:17:48 49° 89° (E) 870 5.0 -28.7°
Enters shadow 15:17:55 49° 83° (E) 872 5.0 -28.7°
